Regional Weather Roundup
Issued by NWS Columbia, SC

Home | Current Version | Previous Version | Text Only | Print | Product List | Glossary On
Versions: 1 2 3 4 5 6 7 8 9 10 11 12 13 14 15 16 17 18 19 20 21 22 23 24 25 26 27
000
ASUS42 KCAE 090210
RWRCAE
REGIONAL WEATHER ROUNDUP
NATIONAL WEATHER SERVICE COLUMBIA SC
900 PM EST THU DEC 08 2016

NOTE: "FAIR" INDICATES FEW OR NO CLOUDS BELOW 12,000 FEET WITH NO
SIGNIFICANT WEATHER AND/OR OBSTRUCTIONS TO VISIBILITY.

NOT ALL STATIONS ARE QUALITY CONTROLLED BY THE NATIONAL
WEATHER SERVICE. USE DATA WITH CAUTION...ESPECIALLY
DEWPOINT OBSERVATIONS.

SCZ001>056-GAZ040-063>065-077-090300-
...UPSTATE SOUTH CAROLINA...

CITY           SKY/WX    TMP DP  RH WIND       PRES   REMARKS
ANDERSON       CLOUDY    42  17  36 NW8       30.27R
LIBERTY        PTCLDY    37  21  53 W5        30.26S WCI  33
SPARTANBURG    CLOUDY    41  10  28 NW12      30.27R
CLEMSON        PTCLDY    42  16  34 NW9       30.28R
GREENVILLE     PTCLDY    42  12  29 N7        30.26S
GREENWOOD      PTCLDY    37  29  72 CALM      30.28R
GREER          CLOUDY    41  14  33 N9        30.25R
ROCK HILL      CLOUDY    41  18  39 VRB3      30.25R
CHESTER        MOCLDY    37  23  56 W5        30.26R WCI  34
LAURENS          N/A     39  23  52 N6        30.26R WCI  35


...CENTRAL SOUTH CAROLINA...

CITY           SKY/WX    TMP DP  RH WIND       PRES   REMARKS
COLUMBIA APT   MOCLDY    47  22  37 NW5       30.26R
COLUMBIA OWENS CLOUDY    47  21  35 VRB7      30.27R
MCENTIRE ANGB  MOCLDY    46  22  38 NW8       30.26R
ORANGEBURG     MOCLDY    47  27  45 NW3       30.26R
SUMTER SHAW    MOCLDY    47  28  48 NW6       30.23R
NEWBERRY       CLOUDY    37  30  75 N3        30.29S
AIKEN          FAIR      43  32  65 NW3       30.30S
MANNING        CLOUDY    48  32  53 NW6       30.25R
LANCASTER      PTCLDY    41  21  45 W3        30.26R
WINNSBORO      CLOUDY    41  23  48 NW5       30.26R


...EASTERN AND COASTAL SOUTH CAROLINA...

CITY           SKY/WX    TMP DP  RH WIND       PRES   REMARKS
MYRTLE BEACH   CLEAR     50  36  57 N12       30.24R
N MYRTLE BCH   PTCLDY    47  34  60 N5        30.22R
CONWAY         FAIR      41  39  93 CALM      30.23R
MARION         FAIR      45  32  61 N3        30.22S
HARTSVILLE     FAIR      43  27  52 CALM      30.23S
FLORENCE       PTCLDY    48  27  44 N9        30.23R
DARLINGTON     MOCLDY    45  28  51 NW7       30.25R
CHARLESTON APT CLOUDY    51  37  58 N12       30.22R
WALTERBORO     MOCLDY    50  34  53 NW6       30.26R
BEAUFORT       PTCLDY    54  44  69 N13       30.24R
HILTON HEAD    CLOUDY    55  45  67 NW12G20   30.23S


...EASTERN GEORGIA...

CITY           SKY/WX    TMP DP  RH WIND       PRES   REMARKS
AUGUSTA BUSH F PTCLDY    48  24  39 NW8       30.28R
AUGUSTA DANIEL PTCLDY    47  22  37 NW7       30.28R
THOMSON        PTCLDY    45  28  50 CALM      30.33S
WASHINGTON     FAIR      43  27  52 NW7       30.30R
CLAXTON        FAIR      49  28  44 NW7       30.28S
SYLVANIA       CLOUDY   N/A N/A N/A N9        30.28R
STATESBORO     MOCLDY    48  29  48 NW12G17   30.28R
SAVANNAH       CLOUDY    53  34  48 NW12G18   30.24S


...SOUTHERN NORTH CAROLINA...

CITY           SKY/WX    TMP DP  RH WIND       PRES   REMARKS
CHARLOTTE      CLOUDY    41  16  36 NW7       30.24S
MONROE         PTCLDY    42  20  41 W3        30.23R
WADESBORO      PTCLDY    39  28  65 CALM      30.23S
ROCKINGHAM     MOCLDY    44  24  45 NW5       30.23S
RUTHERFORDTON  CLEAR     36  14  40 CALM      30.26S
ASHEVILLE      CLOUDY    32  11  41 CALM      30.25R

$$




USA.gov is the U.S. government's official web portal to all federal, state and local government web resources and services.